Kimball, NE

7:08 PM MDT on April 25, 2018 (GMT -0600)
Kimball Municipal-Arraj

Weather History for KIBM - January, 2014

Change the Weather History Date:

Wednesday, January 29, 2014

  Actual Average (KSNY) Record (KSNY)
Temperature  
Mean Temperature 31 °F -  
Max Temperature 51 °F 35 °F 62 °F (2012)
Min Temperature 11 °F 12 °F -17 °F (1949)
Degree Days  
Heating Degree Days 34    
Moisture  
Dew Point 15 °F    
Average Humidity 50    
Maximum Humidity 70    
Minimum Humidity 29    
Precipitation  
Precipitation 0.00 in - - ()
Sea Level Pressure  
Sea Level Pressure 29.73 in    
Wind  
Wind Speed 12 mph (WSW)    
Max Wind Speed 24 mph    
Max Gust Speed 32 mph    
Visibility 10 miles    
Events      
Averages and records for this station are not official NWS values.
T = Trace of Precipitation, MM = Missing Value Source: NWS Daily Summary

Daily Weather History Graph

Daily Weather History Graph

Search for Another Location

Airport or City:

Astronomy

Jan. 29, 2014 Rise Set
Actual Time 8:08 AM CST 6:07 PM CST
Civil Twilight 7:39 AM CST 6:37 PM CST
Nautical Twilight 7:05 AM CST 7:10 PM CST
Astronomical Twilight 6:33 AM CST 7:42 PM CST
Moon 6:47 AM CST (1/29) 5:10 PM CST (1/29)
Length of Visible Light 10h 58m
Length of Day
9h 59m
Waning Crescent, 2% of the Moon is Illuminated
Jan 29
Waning Crescent
Jan 30
New
Feb 6
First Quarter
Feb 14
Full
Feb 22
Last Quarter

Hourly Weather History & Observations

Time (CST) Temp. Windchill Dew Point Humidity Pressure Visibility Wind Dir Wind Speed Gust Speed Precip Events Conditions
12:15 AM 14.5 °F 1.1 °F 0.1 °F 53% 29.96 in 10.0 mi WSW 11.5 mph - N/A   Mostly Cloudy
12:35 AM 14.0 °F 1.2 °F 0.3 °F 55% 29.96 in 10.0 mi West 10.4 mph - N/A   Mostly Cloudy
12:55 AM 11.1 °F -2.4 °F -0.0 °F 61% 29.95 in 10.0 mi WSW 10.4 mph - N/A   Clear
1:15 AM 12.7 °F -0.4 °F -0.0 °F 57% 29.94 in 10.0 mi West 10.4 mph - N/A   Clear
1:35 AM 13.8 °F -0.5 °F 0.1 °F 55% 29.94 in 10.0 mi West 12.7 mph - N/A   Clear
1:55 AM 13.6 °F -0.7 °F 0.5 °F 56% 29.92 in 10.0 mi West 12.7 mph - N/A   Clear
2:15 AM 14.0 °F 0.5 °F 1.0 °F 56% 29.92 in 10.0 mi West 11.5 mph - N/A   Clear
2:35 AM 15.6 °F 2.5 °F 2.3 °F 56% 29.91 in 10.0 mi West 11.5 mph - N/A   Clear
2:55 AM 16.2 °F 1.9 °F 3.6 °F 58% 29.91 in 10.0 mi West 13.8 mph - N/A   Clear
3:15 AM 16.7 °F 3.2 °F 4.8 °F 60% 29.90 in 10.0 mi WNW 12.7 mph - N/A   Clear
3:35 AM 20.3 °F 8.3 °F 6.4 °F 55% 29.89 in 10.0 mi WNW 11.5 mph - N/A   Clear
3:55 AM 23.5 °F 11.3 °F 7.5 °F 50% 29.88 in 10.0 mi WNW 13.8 mph - N/A   Clear
4:15 AM 21.7 °F 10.8 °F 7.9 °F 55% 29.88 in 10.0 mi West 10.4 mph - N/A   Clear
4:35 AM 18.5 °F 7.5 °F 7.5 °F 62% 29.87 in 10.0 mi WSW 9.2 mph - N/A   Clear
4:55 AM 14.4 °F 0.9 °F 6.1 °F 70% 29.87 in 10.0 mi WSW 11.5 mph - N/A   Clear
5:15 AM 17.1 °F 5.8 °F 6.6 °F 64% 29.87 in 10.0 mi WSW 9.2 mph - N/A   Clear
5:35 AM 15.1 °F 1.8 °F 6.6 °F 69% 29.87 in 10.0 mi West 11.5 mph - N/A   Clear
5:55 AM 22.1 °F 10.0 °F 8.2 °F 55% 29.86 in 10.0 mi West 12.7 mph - N/A   Clear
6:15 AM 22.1 °F 7.6 °F 7.5 °F 54% 29.86 in 10.0 mi West 18.4 mph - N/A   Clear
6:35 AM 20.8 °F 9.7 °F 7.5 °F 56% 29.86 in 10.0 mi West 10.4 mph - N/A   Clear
6:55 AM 17.4 °F 7.1 °F 6.8 °F 63% 29.86 in 10.0 mi West 8.1 mph - N/A   Clear
7:15 AM 20.7 °F 8.8 °F 7.5 °F 57% 29.86 in 10.0 mi West 11.5 mph - N/A   Clear
7:35 AM 20.1 °F 7.5 °F 7.7 °F 59% 29.85 in 10.0 mi West 12.7 mph - N/A   Clear
7:55 AM 19.0 °F 6.8 °F 6.8 °F 59% 29.86 in 10.0 mi WNW 11.5 mph - N/A   Clear
8:15 AM 20.1 °F 6.9 °F 6.8 °F 56% 29.86 in 10.0 mi West 13.8 mph - N/A   Clear
8:35 AM 23.0 °F 10.1 °F 7.9 °F 52% 29.86 in 10.0 mi West 15.0 mph - N/A   Clear
8:55 AM 25.5 °F 13.8 °F 9.0 °F 50% 29.86 in 10.0 mi West 13.8 mph - N/A   Clear
9:15 AM 27.9 °F 17.3 °F 12.0 °F 52% 29.85 in 10.0 mi West 12.7 mph - N/A   Clear
9:35 AM 31.3 °F 21.1 °F 14.0 °F 49% 29.85 in 10.0 mi West 13.8 mph - N/A   Clear
9:55 AM 31.8 °F 22.8 °F 14.7 °F 49% 29.85 in 10.0 mi West 11.5 mph - N/A   Clear
10:15 AM 33.6 °F 24.6 °F 16.3 °F 49% 29.86 in 10.0 mi West 12.7 mph - N/A   Clear
10:35 AM 35.6 °F 26.2 °F 19.4 °F 52% 29.85 in 10.0 mi West 15.0 mph - N/A   Clear
10:55 AM 37.2 °F 27.9 °F 21.0 °F 52% 29.85 in 10.0 mi West 16.1 mph - N/A   Clear
11:15 AM 38.5 °F 31.1 °F 21.2 °F 50% 29.84 in 10.0 mi West 11.5 mph - N/A   Clear
11:35 AM 40.1 °F 32.0 °F 21.6 °F 48% 29.83 in 10.0 mi West 15.0 mph - N/A   Clear
11:55 AM 41.7 °F 33.7 °F 23.0 °F 47% 29.82 in 10.0 mi West 16.1 mph - N/A   Clear
12:15 PM 43.7 °F 36.3 °F 24.1 °F 46% 29.82 in 10.0 mi West 16.1 mph - N/A   Clear
12:35 PM 44.4 °F 37.5 °F 23.9 °F 44% 29.80 in 10.0 mi West 15.0 mph - N/A   Clear
12:55 PM 46.0 °F 41.0 °F 24.1 °F 42% 29.78 in 10.0 mi West 10.4 mph - N/A   Clear
1:15 PM 47.3 °F - 25.0 °F 42% 29.76 in 10.0 mi West 11.5 mph - N/A   Clear
1:30 PM 47.8 °F - 23.5 °F 39% 29.75 in 10.0 mi WSW 13.8 mph 21.9 mph N/A   Clear
1:50 PM 48.0 °F - 18.9 °F 31% 29.74 in 10.0 mi WSW 16.1 mph - N/A   Clear
2:15 PM 49.1 °F - 19.2 °F 31% 29.72 in 10.0 mi WSW 15.0 mph 21.9 mph N/A   Clear
2:35 PM 50.2 °F - 21.7 °F 33% 29.71 in 10.0 mi WSW 10.4 mph 20.7 mph N/A   Clear
2:55 PM 51.8 °F - 22.8 °F 32% 29.69 in 10.0 mi West 20.7 mph - N/A   Clear
3:15 PM 51.8 °F - 22.1 °F 31% 29.67 in 10.0 mi West 19.6 mph 26.5 mph N/A   Clear
3:35 PM 51.8 °F - 21.6 °F 31% 29.65 in 10.0 mi West 24.2 mph 32.2 mph N/A   Clear
3:55 PM 49.3 °F - 20.5 °F 32% 29.64 in 10.0 mi West 12.7 mph - N/A   Scattered Clouds
4:15 PM 48.7 °F - 18.0 °F 29% 29.64 in 10.0 mi SSW 16.1 mph - N/A   Scattered Clouds
4:35 PM 46.4 °F 40.1 °F 17.4 °F 31% 29.62 in 10.0 mi SSW 15.0 mph - N/A   Clear
4:55 PM 45.0 °F 39.3 °F 15.8 °F 31% 29.61 in 10.0 mi SSW 11.5 mph - N/A   Scattered Clouds
5:15 PM 43.0 °F 36.8 °F 16.9 °F 35% 29.60 in 10.0 mi SSW 11.5 mph - N/A   Mostly Cloudy
5:35 PM 41.9 °F 35.9 °F 18.5 °F 39% 29.59 in 10.0 mi SSW 10.4 mph - N/A   Unknown
5:55 PM 40.3 °F 33.9 °F 19.9 °F 44% 29.58 in 10.0 mi SSW 10.4 mph - N/A   Overcast
6:15 PM 39.2 °F 33.6 °F 21.0 °F 48% 29.57 in 10.0 mi SSW 8.1 mph - N/A   Overcast
6:35 PM 38.3 °F 33.2 °F 21.9 °F 52% 29.55 in 10.0 mi SW 6.9 mph - N/A   Overcast
6:55 PM 38.1 °F 31.2 °F 22.3 °F 53% 29.55 in 10.0 mi SW 10.4 mph - N/A   Overcast
7:15 PM 38.7 °F 31.8 °F 22.6 °F 53% 29.54 in 10.0 mi SW 10.4 mph - N/A   Overcast
7:35 PM 39.2 °F 32.5 °F 22.8 °F 52% 29.52 in 10.0 mi WSW 10.4 mph - N/A   Overcast
7:55 PM 39.2 °F 34.2 °F 22.8 °F 52% 29.50 in 10.0 mi SSW 6.9 mph - N/A   Overcast
8:15 PM 39.4 °F 33.8 °F 23.0 °F 52% 29.48 in 10.0 mi SSW 8.1 mph - N/A   Overcast
8:35 PM 38.5 °F 36.1 °F 23.9 °F 56% 29.47 in 10.0 mi SSW 3.5 mph - N/A   Overcast
8:55 PM 38.7 °F - 23.5 °F 55% 29.47 in 10.0 mi Calm Calm - N/A   Mostly Cloudy
9:15 PM 39.9 °F - 22.6 °F 50% 29.47 in 10.0 mi Calm Calm - N/A   Mostly Cloudy
9:35 PM 41.0 °F - 21.9 °F 47% 29.46 in 10.0 mi Calm Calm - N/A   Mostly Cloudy
9:55 PM 38.5 °F 33.4 °F 22.8 °F 53% 29.45 in 10.0 mi South 6.9 mph - N/A   Scattered Clouds
10:15 PM 37.9 °F 30.9 °F 23.7 °F 57% 29.44 in 10.0 mi SSW 10.4 mph - N/A   Clear
10:35 PM 38.5 °F 32.7 °F 24.4 °F 57% 29.43 in 10.0 mi SW 8.1 mph - N/A   Clear
10:55 PM 38.3 °F 32.5 °F 24.8 °F 58% 29.42 in 10.0 mi SW 8.1 mph - N/A   Clear
11:15 PM 38.8 °F 32.6 °F 25.2 °F 58% 29.41 in 10.0 mi WSW 9.2 mph - N/A   Clear
11:35 PM 39.9 °F 32.5 °F 25.7 °F 57% 29.40 in 10.0 mi WSW 12.7 mph - N/A   Clear
11:55 PM 44.2 °F 36.7 °F 25.2 °F 47% 29.40 in 10.0 mi WSW 17.3 mph - N/A   Clear